Powrót do katalogu

COSMOS 2251 DEB

AktywnyLEO
NORAD 36058·DEBRIS·🇷🇺 Russia

Wystrzelony Jun 16, 1993 z Plesetsk Cosmodrome

Loading…

Następne Przeloty (najbliższe 24 godziny)

TLE

ŚwieżeSource: Space-Track

Epoka: Sep 14, 2026, 06:18 UTC

1 36058U 93036AXV 26257.26310643  .00001686  00000-0  35339-3 0  9997
2 36058  74.0196 227.7418 0046727 290.1367  69.4774 14.59886455701309

Śledź COSMOS 2251 DEB w czasie rzeczywistym z AllMySat

Download on the App Store